Tracking 21605 objects as of 26-Oct-2020
HD Live streaming from Space Station
objects crossing your sky now

SOLRAD 1 (GREB)

Track SOLRAD 1 (GREB) now!
10-day predictions
SOLRAD 1 (GREB) is classified as:


NORAD ID: 46
Int'l Code: 1960-007B
Perigee: 588.6 km
Apogee: 881.3 km
Inclination: 66.7 °
Period: 99.4 minutes
Semi major axis: 7105 km
RCS: 0.3563 m2 (medium)
Launch date: June 22, 1960
Source: United States (US)
Launch site: AIR FORCE EASTERN TEST RANGE (AFETR)
aabbcc
Your satellite tracking list
Your tracking list is empty




NASA's NSSDC Master Catalog

Two Line Element Set (TLE):
1    46U 60007B   20299.82090964 +.00000021 +00000-0 +27247-4 0  9992
2    46 066.6917 054.2791 0205959 032.3167 329.0364 14.49324877158007
Source of the keplerian elements: AFSPC